Regional Weather Roundup
Issued by NWS

Home | Current Version | Previous Version | Graphics & Text | Print | Product List | Glossary On
Versions: 1 2 3 4 5 6 7 8 9 10 11 12 13 14 15 16 17 18 19 20 21 22 23 24 25 26 27 28 29 30 31 32 33 34 35 36 37 38 39 40 41 42 43 44 45 46 47 48 49 50
000
ASUS45 KTFX 310510
RWRMT
MONTANA REGIONAL WEATHER ROUNDUP
NATIONAL WEATHER SERVICE GREAT FALLS MT
1100 PM MDT THU JUL 30 2015

NOTE: "FAIR" INDICATES FEW OR NO CLOUDS BELOW 12000 FEET WITH NO
SIGNIFICANT WEATHER AND/OR OBSTRUCTIONS TO VISIBILITY.

MTZ001>007-043-310600-
WEST OF THE DIVIDE

CITY           SKY/WX    TMP DP  RH WIND       PRES   REMARKS
KALISPELL      FAIR      61  40  45 CALM      30.14R
MISSOULA       FAIR      67  43  41 S6        30.18R
BUTTE          FAIR      59  42  53 SE6       30.34R
MULLAN PASS    FAIR      67  28  23 NW3       30.36S
DEER LODGE       N/A     61  39  44 CALM      30.32R
EUREKA           N/A     66  36  32 CALM      30.13R
HAMILTON         N/A     63  46  55 S2        30.21R
LIBBY            N/A     68  39  34 S6        30.14S
RONAN            N/A     61  47  59 N1        30.20R
$$

MTZ008-052>055-310600-
SOUTHWEST MONTANA

CITY           SKY/WX    TMP DP  RH WIND       PRES   REMARKS
BOZEMAN        FAIR      65  46  50 S12       30.25S
DILLON         FAIR      64  42  44 SW10      30.29R
W YELLOWSTONE  CLEAR     50  39  66 CALM      30.44R
THREE FORKS      N/A     65  65 100 CALM      30.21S
TWIN BRIDGES     N/A     62  44  51 NW3       30.23S
$$

MTZ009-010-012-014-046-048-049-054-310600-
EAST SLOPES AND CENTRAL MONTANA

CITY           SKY/WX    TMP DP  RH WIND       PRES   REMARKS
CUT BANK       FAIR      69  36  29 E6        30.19S
GREAT FALLS    FAIR      71  40  32 E12       30.17S
MALMSTROM AFB  FAIR      67  45  45 SE12      30.17S
HELENA         FAIR      73  39  29 SW5       30.22R
$$

MTZ011-013-016-021-045-047-050-051-310600-
NORTH CENTRAL MONTANA

CITY           SKY/WX    TMP DP  RH WIND       PRES   REMARKS
HAVRE          FAIR      68  51  54 NE5       30.14R
LEWISTOWN      FAIR      62  46  55 SE9       30.26S
CHINOOK          N/A     70  52  52 E9        30.15R
$$

MTZ017>020-022>027-061-062-310600-
NORTHEAST MONTANA

CITY           SKY/WX    TMP DP  RH WIND       PRES   REMARKS
GLASGOW        CLEAR     66  49  54 NE10      30.14S
JORDAN           N/A     64  45  49 S3        30.18S
SIDNEY         CLEAR    N/A N/A N/A CALM      30.15S
WOLF POINT     CLEAR     62  48  60 NE3       30.15R
MALTA            N/A     66  51  58 CALM      30.11R
PLENTYWOOD       N/A     64  50  59 CALM      30.16S
POPLAR           N/A     66  50  55 CALM      30.15F
$$

MTZ028>42-056>058-310600-
SOUTHCENTRAL AND SOUTHEAST MONTANA

CITY           SKY/WX    TMP DP  RH WIND       PRES   REMARKS
BAKER          CLEAR     64  44  48 CALM      30.23R
BILLINGS       CLEAR     73  41  31 N8        30.24R
LIVINGSTON     CLEAR     65  37  35 E5        30.28R
MILES CITY     CLEAR     72  46  39 NE9       30.19R
FORSYTH          N/A     70  45  40 CALM      30.19S
LAUREL           N/A     72  36  26 N2        30.19R
ROUNDUP          N/A     70  34  26 CALM      30.13S
$$

REGIONAL REPORTS...DAKOTAS

CITY           SKY/WX    TMP DP  RH WIND       PRES   REMARKS
WILLISTON      CLEAR     59  51  75 N3        30.16S
MINOT          CLEAR     61  48  62 SW7       30.12S
DICKINSON      CLEAR     60  48  64 S5        30.19R
BEACH          FAIR      54  54 100 SE3       30.21S
CROSBY         FAIR      54  54 100 SW5       30.15S
BISMARCK       CLEAR     60  52  74 CALM      30.15S
GRAND FORKS    CLEAR     58  52  80 W8        30.02S
FARGO          CLEAR     63  55  75 W6        30.05S
BUFFALO SD       N/A     68  47  46 NE7       30.16S
RAPID CITY     CLEAR     63  51  65 CALM      30.21R
$$

REGIONAL REPORTS...WYOMING/IDAHO/WASHINGTON

CITY           SKY/WX    TMP DP  RH WIND       PRES   REMARKS
GILLETTE       CLEAR     58  41  53 SW3       30.28R
SHERIDAN       CLEAR     61  47  59 CALM      30.26R
BUFFALO WY     CLEAR     66  40  38 W7        30.34R
CODY           CLEAR     66  36  32 SW3       30.32S
YELLOWSTONE LA   N/A     50  34  54 NW3       30.53S
IDAHO FALLS    CLEAR     59  46  62 CALM      30.29R
SALMON         FAIR      64  46  52 CALM      30.21R
BOISE          FAIR      78  36  21 SE3       30.12R
SPOKANE        FAIR      77  31  18 W5        30.09R
$$

REGIONAL REPORTS...ALBERTA

CITY           SKY/WX    TMP DP  RH WIND       PRES   REMARKS
EDMONTON       CLEAR     55  46  71 CALM      30.13R
CALGARY        PTCLDY    64  46  52 E5        30.19R
LETHBRIDGE     CLEAR     61  50  67 SE6       30.14S
MEDICINE HAT   CLEAR     68  39  34 E6        30.13R
WATERTON GATE    N/A     50  43  76 E2          N/A
ONEFOUR          N/A     63  46  55 NE12        N/A
$$

REGIONAL REPORTS...SASKATCHEWAN

CITY           SKY/WX    TMP DP  RH WIND       PRES   REMARKS
SWIFT CURRENT  CLEAR     64  48  55 E6        30.16S
REGINA         PTCLDY    55  54  94 W3        30.12S
SASKATOON      CLEAR     52  48  87 W8        30.12R
CYPRESS HILLS    N/A     61  36  39 E5          N/A
VAL MARIE        N/A     57  52  82 NE1         N/A
ROCKGLEN         N/A     59  52  77 S3          N/A
$$



USA.gov is the U.S. government's official web portal to all federal, state and local government web resources and services.